Regional Weather Roundup
Issued by NWS

Home | Current Version | Previous Version | Graphics & Text | Print | Product List | Glossary On
Versions: 1 2 3 4 5 6 7 8 9 10 11 12 13 14 15 16 17 18 19 20 21 22 23 24 25 26 27 28 29 30 31 32 33 34 35 36 37 38 39 40 41 42 43 44 45 46 47 48 49 50
000
ASUS43 KLMK 050310
RWRKY
KENTUCKY REGIONAL WEATHER ROUNDUP
NATIONAL WEATHER SERVICE LOUISVILLE KY
1000 PM EST WED MAR 04 2015

NOTE "FAIR" INDICATES FEW OR NO CLOUDS BELOW 12,000 FEET
WITH NO SIGNIFICANT WEATHER AND/OR OBSTRUCTIONS TO VISIBILITY.

KYZ001>023-026-027-061>063-070>075-050400-
WESTERN AND SOUTH CENTRAL KENTUCKY

CITY           SKY/WX    TMP DP  RH WIND       PRES   REMARKS
PADUCAH        SNOW      19  16  88 N22       30.29  VSB 1/2 WCI   2
HENDERSON      CLOUDY    18  14  86 N10       30.29R WCI   6
OWENSBORO      NOT AVBL
HOPKINSVILLE   LGTSLEET  23  20  87 N13G22    30.19R WCI  12
BOWLING GREEN  FRZ RAIN  28  24  85 N9        30.16R FOG     WCI  19
GLASGOW        NOT AVBL
$$

KYZ024-025-028>034-038-045-046-053-050400-
NORTH CENTRAL KENTUCKY

CITY           SKY/WX    TMP DP  RH WIND       PRES   REMARKS
LOUISVILLE/SDF NOT AVBL
LOUISVILLE/LOU LGT SNOW  24  21  88 N14G21    30.21R VSB 1   WCI  12
FORT KNOX      LGT SNOW  26  23  91 N12       30.17  VSB 1   WCI  15
$$

KYZ035>037-039>044-047>052-055>060-089>105-050400-
NORTHEAST KENTUCKY

CITY           SKY/WX    TMP DP  RH WIND       PRES   REMARKS
LEXINGTON      LGT SNOW  28  27  96 N14       30.13R VSB 3/4 WCI  17
COVINGTON      LGT SNOW  24  21  88 NW15      30.17  VSB 1   WCI  11
FRANKFORT      LGT SNOW  27  25  92 NW10      30.14R VSB 3/4 WCI  17
$$

KYZ054-064>069-076>088-106>120-050400-
SOUTHEAST KENTUCKY

CITY           SKY/WX    TMP DP  RH WIND       PRES   REMARKS
JACKSON        LGT RAIN  34  32  92 VRB5      30.05  FOG     WCI  30
LONDON         LGT RAIN  36  32  85 N8        30.06R WCI  30
SOMERSET       NOT AVBL
MIDDLESBORO    NOT AVBL
MONTICELLO     LGT SNOW  35  33  92 N13       30.11R FOG     WCI  26
$$



USA.gov is the U.S. government's official web portal to all federal, state and local government web resources and services.